Orbital Elements at Epoch 2459200.5 (2020-Dec-17.0) TDB
Reference: JPL 24 (heliocentric ecliptic J2000)
Element | Value | Uncertainty (1-sigma) | Units |
e | .1593767712474789 | 4.0864e-08 | |
a | 2.763115201117512 | 1.5884e-08 | au |
q | 2.322738821778574 | 1.0658e-07 | au |
i | 11.15541401962624 | 4.0163e-06 | deg |
node | 170.0723409356975 | 2.6717e-05 | deg |
peri | 177.9551018577152 | 3.165e-05 | deg |
M | 70.34581320486949 | 1.8301e-05 | deg |
tp | 2458872.682096316955 (2020-Jan-24.18209632) | 8.398e-05 | TDB |
period | 1677.632824887538 4.59 | 1.4466e-05 3.961e-08 | d yr |
n | .2145880759242613 | 1.8504e-09 | deg/d |
Q | 3.203491580456449 | 1.8416e-08 | au |
|
| | Orbit Determination Parameters
Additional Information
|